Location: Newark
(51.3318°N, 0.0053°E)
Time: 00:52:32
(UTC+00:00)

Envisat - Pass Details

Date: 22 January 2022
Orbit: 764 x 765 km, 98.2° (Epoch: 22 May)

Event Time Altitude Azimuth Distance (km) Brightness Sun altitude
Rises 05:04:10 0° 14° (NNE) 3,244 6.4 -25.7°
Reaches altitude 10° 05:06:29 10° 16° (NNE) 2,313 5.6 -25.3°
Maximum altitude 05:11:36 84° 105° (ESE) 776 2.9 -24.5°
Drops below altitude 10° 05:16:40 10° 194° (SSW) 2,297 5.3 -23.7°
Sets 05:18:58 0° 195° (SSW) 3,219 6.1 -23.4°
